KE4ODN Weather Reports


time (UTC)temp
F
wind
direction
speed
knots
gust
knots
rain 1hr
in
rain 24hr
in
rain mn
in
humidity
%
barometer
mb
20260510202424 78 221 0.9 1.7 0.00 0.00 0.00 64 1016.0
20260510202003 78 218 0.0 1.7 0.00 0.00 0.00 70 1016.0
20260510201603 77 216 0.9 1.7 0.00 0.00 0.00 73 1016.0
20260510201203 77 215 0.9 2.6 0.00 0.00 0.00 66 1016.0
20260510200803 77 196 0.9 3.5 0.00 0.00 0.00 69 1016.0
20260510200403 76 57 0.9 3.5 0.00 0.00 0.00 69 1016.0
20260510200003 76 50 0.9 1.7 0.00 0.00 0.00 70 1016.0
20260510195603 77 53 0.9 3.5 0.00 0.00 0.00 68 1016.1
20260510195203 76 55 0.9 3.5 0.00 0.00 0.00 64 1016.1
20260510194803 77 56 0.9 2.6 0.00 0.00 0.00 66 1016.1
20260510194424 77 56 0.9 3.5 0.00 0.00 0.00 70 1016.1
20260510194024 77 62 0.9 3.5 0.00 0.00 0.00 67 1016.2
20260510193603 77 77 0.9 3.5 0.00 0.00 0.00 69 1016.1
20260510193203 76 76 0.9 2.6 0.00 0.00 0.00 70 1016.1
20260510192824 76 52 0.9 1.7 0.00 0.00 0.00 73 1016.1
20260510192403 75 40 0.9 1.7 0.00 0.00 0.00 73 1016.2
20260510192024 75 39 0.9 1.7 0.00 0.00 0.00 73 1016.3
20260510191603 75 38 0.9 1.7 0.00 0.00 0.00 69 1016.3
20260510191203 76 42 0.9 2.6 0.00 0.00 0.00 68 1016.3
20260510190803 76 53 0.9 2.6 0.00 0.00 0.00 73 1016.3
20260510190403 76 77 0.9 2.6 0.00 0.00 0.00 72 1016.3
20260510190003 76 80 0.9 1.7 0.00 0.00 0.00 76 1016.3
20260510185603 74 63 0.9 3.5 0.00 0.00 0.00 79 1016.4
20260510185203 74 45 0.9 3.5 0.00 0.00 0.00 77 1016.5
20260510184803 74 40 1.7 4.3 0.00 0.00 0.00 76 1016.6
20260510184403 75 30 0.9 4.3 0.00 0.00 0.00 74 1016.6
20260510184003 75 23 0.9 1.7 0.00 0.00 0.00 77 1016.7
20260510183603 74 51 0.9 1.7 0.00 0.00 0.00 74 1016.8
20260510183203 74 90 0.9 1.7 0.00 0.00 0.00 76 1016.8
20260510182803 74 109 0.9 1.7 0.00 0.00 0.00 77 1016.8
20260510182424 73 107 0.9 3.5 0.00 0.00 0.00 81 1016.8
20260510182003 73 100 0.9 3.5 0.00 0.00 0.00 80 1016.8
20260510181603 73 89 0.9 3.5 0.00 0.00 0.00 81 1016.8
20260510181203 73 80 0.9 2.6 0.00 0.00 0.00 82 1016.8
20260510180824 72 72 0.0 1.7 0.00 0.00 0.00 82 1016.9
20260510180403 71 72 0.9 1.7 0.00 0.00 0.00 82 1017.0
20260510180003 71 72 0.9 2.6 0.00 0.00 0.00 85 1017.0
20260510175603 71 72 0.9 2.6 0.00 0.00 0.00 85 1017.0
20260510175203 71 71 0.0 2.6 0.00 0.00 0.00 85 1017.1
20260510174803 71 60 0.9 2.6 0.00 0.00 0.00 86 1017.1
20260510174403 71 59 0.9 2.6 0.00 0.00 0.00 84 1017.2
20260510174003 70 57 0.0 2.6 0.00 0.00 0.00 88 1017.3
20260510173603 70 57 0.0 2.6 0.00 0.00 0.00 88 1017.3
20260510173224 69 57 0.0 2.6 0.00 0.00 0.00 87 1017.4
20260510172803 69 57 0.0 0.9 0.00 0.00 0.00 87 1017.4
20260510172403 69 0 0.0 0.0 0.00 0.00 0.00 88 1017.5
20260510172003 69 0 0.0 0.9 0.00 0.00 0.00 87 1017.5
20260510171603 69 0 0.0 0.9 0.00 0.00 0.00 85 1017.5
20260510171203 69 0 0.0 0.9 0.00 0.00 0.00 85 1017.5
20260510170803 69 57 0.0 0.9 0.00 0.00 0.00 87 1017.6
20260510170403 69 57 0.0 0.9 0.00 0.00 0.00 87 1017.7
20260510170003 69 57 0.0 0.9 0.00 0.00 0.00 89 1017.7
20260510165603 69 57 0.0 0.9 0.00 0.00 0.00 88 1017.7
20260510165203 68 57 0.0 0.9 0.00 0.00 0.00 87 1017.7
20260510164803 68 57 0.0 0.9 0.00 0.00 0.00 88 1017.8
20260510164403 68 57 0.0 0.9 0.00 0.00 0.00 88 1017.8
20260510164003 68 57 0.0 0.9 0.00 0.00 0.00 89 1017.7
20260510163603 68 57 0.0 0.9 0.00 0.00 0.00 88 1017.6
20260510163203 68 57 0.0 2.6 0.00 0.00 0.00 88 1017.7
20260510162803 68 57 0.0 2.6 0.00 0.00 0.00 88 1017.6
20260510162403 68 57 0.0 2.6 0.00 0.00 0.00 90 1017.6
20260510162003 68 57 0.0 0.9 0.00 0.00 0.00 89 1017.6
20260510161603 67 57 0.0 0.9 0.00 0.00 0.00 90 1017.5
20260510161203 67 0 0.0 0.0 0.00 0.00 0.00 91 1017.6
20260510160803 67 0 0.0 0.0 0.00 0.00 0.00 90 1017.6
20260510160403 67 0 0.0 0.0 0.00 0.00 0.00 90 1017.7
20260510160003 67 0 0.0 0.0 0.00 0.00 0.00 90 1017.6
20260510155624 67 0 0.0 0.0 0.00 0.00 0.00 91 1017.6
20260510155203 67 0 0.0 0.0 0.00 0.00 0.00 91 1017.7
20260510154803 67 0 0.0 0.0 0.00 0.00 0.00 91 1017.7
20260510154424 67 0 0.0 0.0 0.00 0.00 0.00 91 1017.7
20260510154003 66 0 0.0 0.0 0.00 0.00 0.00 91 1017.7
20260510153603 67 0 0.0 0.0 0.00 0.00 0.00 91 1017.7
20260510153204 67 0 0.0 0.0 0.00 0.00 0.00 92 1017.6
20260510152803 66 0 0.0 0.0 0.00 0.00 0.00 91 1017.6
20260510152404 66 0 0.0 0.0 0.00 0.00 0.00 92 1017.7
20260510152003 66 0 0.0 0.9 0.00 0.00 0.00 92 1017.7
20260510151603 66 0 0.0 0.9 0.00 0.00 0.00 93 1017.7
20260510151203 66 0 0.0 0.9 0.00 0.00 0.00 93 1017.7
20260510150803 66 0 0.0 0.0 0.00 0.00 0.00 93 1017.6
20260510150403 66 0 0.0 0.0 0.00 0.00 0.00 93 1017.6
20260510150003 66 0 0.0 0.0 0.00 0.00 0.00 93 1017.6
20260510145603 66 0 0.0 0.0 0.00 0.00 0.00 93 1017.6
20260510145224 66 0 0.0 0.0 0.00 0.00 0.00 93 1017.6
20260510144803 66 0 0.0 0.0 0.00 0.00 0.00 94 1017.6
20260510144403 66 0 0.0 0.0 0.00 0.00 0.00 94 1017.6
20260510144003 65 0 0.0 0.0 0.00 0.00 0.00 94 1017.6
20260510143603 65 0 0.0 0.0 0.00 0.00 0.00 94 1017.6
20260510143203 65 0 0.0 0.0 0.00 0.00 0.00 93 1017.6
20260510142803 65 0 0.0 0.0 0.00 0.00 0.00 94 1017.6
20260510142403 65 0 0.0 0.9 0.00 0.00 0.00 94 1017.6
20260510142003 65 351 0.0 2.6 0.00 0.00 0.00 94 1017.5
20260510141624 65 351 0.0 2.6 0.00 0.00 0.00 94 1017.6
20260510141203 65 351 0.0 2.6 0.00 0.00 0.00 95 1017.6
20260510140803 65 0 0.0 0.0 0.00 0.00 0.00 95 1017.4
20260510140403 65 0 0.0 0.0 0.00 0.00 0.00 94 1017.4
20260510140024 64 0 0.0 0.0 0.00 0.00 0.00 95 1017.5
20260510135624 65 0 0.0 0.0 0.00 0.00 0.00 95 1017.4
20260510135203 65 0 0.0 0.0 0.00 0.00 0.00 95 1017.4
20260510134803 64 0 0.0 0.0 0.00 0.00 0.00 95 1017.4
20260510134403 64 0 0.0 0.0 0.00 0.00 0.00 95 1017.5
20260510134003 64 0 0.0 0.0 0.00 0.00 0.00 95 1017.4
20260510133603 64 0 0.0 0.0 0.00 0.00 0.00 95 1017.3
20260510133203 64 0 0.0 0.0 0.00 0.00 0.00 96 1017.3
20260510132803 64 0 0.0 0.0 0.00 0.00 0.00 96 1017.3
20260510132403 64 0 0.0 0.0 0.00 0.00 0.00 95 1017.3
20260510132003 64 0 0.0 0.0 0.00 0.00 0.00 96 1017.2
20260510131603 64 0 0.0 0.0 0.00 0.00 0.00 96 1017.1
20260510131203 64 0 0.0 0.0 0.00 0.00 0.00 96 1017.0
20260510130803 64 0 0.0 0.0 0.00 0.00 0.00 96 1017.0
20260510130403 64 0 0.0 0.0 0.00 0.00 0.00 96 1017.0
20260510130003 64 0 0.0 0.0 0.00 0.00 0.00 96 1017.1
20260510125603 64 0 0.0 0.0 0.00 0.00 0.00 96 1017.1
20260510125203 64 0 0.0 0.0 0.00 0.00 0.00 96 1017.0
20260510124803 64 0 0.0 0.0 0.00 0.00 0.00 96 1017.0
20260510124403 64 0 0.0 0.0 0.00 0.00 0.00 96 1016.9
20260510124003 64 0 0.0 0.0 0.00 0.00 0.00 96 1016.8
20260510123603 64 0 0.0 0.0 0.00 0.00 0.00 96 1016.8
20260510123203 64 0 0.0 0.0 0.00 0.00 0.00 96 1016.6
20260510122803 64 0 0.0 0.0 0.00 0.00 0.00 96 1016.6
20260510122403 64 0 0.0 0.0 0.00 0.00 0.00 96 1016.6
20260510122003 64 0 0.0 0.0 0.00 0.00 0.00 96 1016.6
20260510121603 64 0 0.0 0.0 0.00 0.00 0.00 96 1016.5
20260510121224 64 0 0.0 0.0 0.00 0.00 0.00 96 1016.5
20260510120803 64 0 0.0 0.0 0.00 0.00 0.00 96 1016.4
20260510120403 64 0 0.0 0.0 0.00 0.00 0.00 96 1016.4
20260510120003 64 0 0.0 0.0 0.00 0.00 0.00 96 1016.4
20260510115603 64 0 0.0 0.0 0.00 0.00 0.00 96 1016.3
20260510115224 63 0 0.0 0.0 0.00 0.00 0.00 96 1016.3
20260510114803 64 0 0.0 0.0 0.00 0.00 0.00 96 1016.2
20260510114403 64 0 0.0 0.0 0.00 0.00 0.00 96 1016.1
20260510114003 63 0 0.0 0.0 0.00 0.00 0.00 96 1016.1
20260510113624 63 0 0.0 0.0 0.00 0.00 0.00 96 1015.9
20260510113203 63 0 0.0 0.0 0.00 0.00 0.00 96 1015.8
20260510112803 63 0 0.0 0.0 0.00 0.00 0.00 96 1015.7
20260510112403 63 0 0.0 0.0 0.00 0.00 0.00 96 1015.6
20260510112003 63 0 0.0 0.0 0.00 0.00 0.00 96 1015.5
20260510111603 63 0 0.0 0.0 0.00 0.00 0.00 96 1015.5
20260510111203 63 0 0.0 0.0 0.00 0.00 0.00 96 1015.3
20260510110803 63 0 0.0 0.0 0.00 0.00 0.00 96 1015.2
20260510110403 63 0 0.0 0.0 0.00 0.00 0.00 96 1015.2
20260510110003 63 0 0.0 0.0 0.00 0.00 0.00 96 1015.0
20260510105603 63 0 0.0 0.0 0.00 0.00 0.00 96 1015.0
20260510105203 63 0 0.0 0.0 0.00 0.00 0.00 96 1014.9
20260510104824 63 0 0.0 0.0 0.00 0.00 0.00 96 1014.8
20260510104403 63 0 0.0 0.0 0.00 0.00 0.00 96 1014.7
20260510104003 64 0 0.0 0.0 0.00 0.00 0.00 96 1014.7
20260510103603 64 0 0.0 0.0 0.00 0.00 0.00 96 1014.6
20260510103203 64 0 0.0 0.0 0.00 0.00 0.00 96 1014.6
20260510102803 64 0 0.0 0.0 0.00 0.00 0.00 96 1014.6
20260510102424 64 0 0.0 0.0 0.00 0.00 0.00 96 1014.5
20260510102003 64 0 0.0 0.0 0.00 0.00 0.00 96 1014.5
20260510101603 63 0 0.0 0.0 0.00 0.00 0.00 96 1014.5
20260510101203 63 0 0.0 0.0 0.00 0.00 0.00 96 1014.5
20260510100803 64 351 0.0 1.7 0.00 0.00 0.00 96 1014.4
20260510100404 64 351 0.0 1.7 0.00 0.00 0.00 96 1014.4
20260510100004 64 351 0.0 1.7 0.00 0.00 0.00 96 1014.3
20260510095603 64 0 0.0 0.0 0.00 0.00 0.00 96 1014.2
20260510095203 64 0 0.0 0.0 0.00 0.00 0.00 96 1014.1
20260510094803 64 0 0.0 0.0 0.00 0.00 0.00 96 1014.1
20260510094403 63 0 0.0 0.0 0.00 0.00 0.00 96 1014.1
20260510094003 64 0 0.0 0.0 0.00 0.00 0.00 96 1014.0
20260510093603 63 0 0.0 0.0 0.00 0.00 0.00 96 1013.9
20260510093203 63 0 0.0 0.0 0.00 0.00 0.00 96 1013.9
20260510092824 64 0 0.0 0.0 0.00 0.00 0.00 96 1013.9
20260510092403 64 0 0.0 0.0 0.00 0.00 0.00 96 1013.7
20260510092024 63 0 0.0 0.0 0.00 0.00 0.00 96 1013.7
20260510091624 63 0 0.0 0.0 0.00 0.00 0.00 96 1013.8
20260510091203 63 0 0.0 0.0 0.00 0.00 0.00 96 1013.7
20260510090824 63 0 0.0 0.0 0.00 0.00 0.00 96 1013.6
20260510090403 63 0 0.0 0.0 0.00 0.00 0.00 96 1013.5
20260510090003 63 0 0.0 0.0 0.00 0.00 0.00 96 1013.5
20260510085603 63 0 0.0 0.0 0.00 0.00 0.00 96 1013.4
20260510085224 63 0 0.0 0.0 0.00 0.00 0.00 96 1013.4
20260510084803 63 0 0.0 0.0 0.00 0.00 0.00 96 1013.4
20260510084403 63 0 0.0 0.0 0.00 0.00 0.00 96 1013.2
20260510084003 63 0 0.0 0.0 0.00 0.00 0.00 96 1013.2
20260510083603 63 0 0.0 0.0 0.00 0.01 0.00 96 1013.2
20260510083203 63 0 0.0 0.0 0.00 0.02 0.00 96 1013.2
20260510082803 63 0 0.0 0.0 0.00 0.03 0.00 96 1013.2
20260510082403 63 0 0.0 0.0 0.00 0.03 0.00 96 1013.2
20260510082003 63 0 0.0 0.0 0.00 0.04 0.00 96 1013.2
20260510081624 63 0 0.0 0.0 0.00 0.04 0.00 96 1013.1
20260510081203 63 0 0.0 0.0 0.00 0.05 0.00 96 1013.1
20260510080803 63 0 0.0 0.0 0.00 0.05 0.00 96 1013.1
20260510080403 63 0 0.0 0.0 0.00 0.05 0.00 96 1013.1
20260510080003 63 0 0.0 0.0 0.00 0.05 0.00 96 1013.1
20260510075603 63 0 0.0 0.0 0.00 0.05 0.00 95 1013.1
20260510075203 63 0 0.0 0.0 0.00 0.05 0.00 95 1013.1
20260510074803 63 0 0.0 0.0 0.00 0.05 0.00 95 1013.0
20260510074403 63 0 0.0 0.0 0.00 0.05 0.00 96 1013.1
20260510074003 63 0 0.0 0.0 0.00 0.05 0.00 96 1013.1
20260510073624 63 0 0.0 0.0 0.00 0.05 0.00 95 1013.1
20260510073203 63 0 0.0 0.0 0.00 0.05 0.00 95 1013.1
20260510072803 63 0 0.0 0.0 0.00 0.05 0.00 95 1013.1
20260510072403 63 0 0.0 0.0 0.00 0.05 0.00 95 1013.2
20260510072003 63 0 0.0 0.0 0.00 0.05 0.00 95 1013.2
20260510071624 63 0 0.0 0.0 0.00 0.05 0.00 95 1013.2
20260510071203 63 0 0.0 0.0 0.00 0.05 0.00 95 1013.2
20260510070824 63 0 0.0 0.0 0.00 0.05 0.00 96 1013.2
20260510070403 63 0 0.0 0.0 0.00 0.05 0.00 96 1013.2
20260510070003 63 0 0.0 0.0 0.00 0.05 0.00 95 1013.2
20260510065603 63 0 0.0 0.0 0.00 0.05 0.00 95 1013.2
20260510065203 63 0 0.0 0.0 0.00 0.05 0.00 95 1013.3
20260510064803 63 0 0.0 0.0 0.00 0.05 0.00 95 1013.3
20260510064424 63 0 0.0 0.0 0.00 0.05 0.00 95 1013.4
20260510064003 63 0 0.0 0.0 0.00 0.05 0.00 95 1013.5
20260510063603 63 0 0.0 0.0 0.00 0.05 0.00 95 1013.4
20260510063203 63 0 0.0 0.0 0.00 0.05 0.00 95 1013.5
20260510062803 63 0 0.0 0.0 0.00 0.05 0.00 95 1013.6
20260510062424 63 0 0.0 0.0 0.00 0.05 0.00 95 1013.7
20260510062003 63 0 0.0 0.0 0.00 0.05 0.00 95 1013.7
20260510061603 63 0 0.0 0.0 0.00 0.05 0.00 95 1013.7
20260510061203 62 0 0.0 0.0 0.00 0.05 0.00 95 1013.7
20260510060803 62 0 0.0 0.0 0.00 0.05 0.00 95 1013.7
20260510060403 62 0 0.0 0.0 0.00 0.05 0.00 95 1013.6
20260510060003 62 0 0.0 0.0 0.00 0.05 0.00 95 1013.6
20260510055603 62 0 0.0 0.0 0.00 0.05 0.00 95 1013.6
20260510055224 62 0 0.0 0.0 0.00 0.05 0.00 95 1013.7
20260510054803 62 0 0.0 0.0 0.00 0.05 0.00 95 1013.6
20260510054403 62 0 0.0 0.0 0.00 0.05 0.00 95 1013.7
20260510054024 62 0 0.0 0.0 0.00 0.05 0.00 95 1013.8
20260510053603 62 0 0.0 0.0 0.00 0.05 0.00 95 1013.7
20260510053224 62 0 0.0 0.0 0.00 0.05 0.00 95 1013.8
20260510052803 62 0 0.0 0.0 0.00 0.05 0.00 95 1013.8
20260510052424 62 0 0.0 0.0 0.00 0.05 0.00 95 1013.8
20260510052003 62 0 0.0 0.0 0.00 0.05 0.00 95 1013.9
20260510051603 62 0 0.0 0.0 0.00 0.05 0.00 95 1013.8
20260510051203 62 0 0.0 0.0 0.00 0.05 0.00 95 1013.7
20260510050803 62 0 0.0 0.0 0.00 0.05 0.00 95 1013.8
20260510050403 62 0 0.0 0.0 0.00 0.05 0.00 95 1013.8
20260510050003 62 0 0.0 0.0 0.00 0.05 0.00 95 1013.8
20260510045603 62 0 0.0 0.0 0.00 0.05 0.05 95 1013.8
20260510045203 62 0 0.0 0.0 0.00 0.05 0.05 95 1013.9
20260510044803 62 0 0.0 0.0 0.00 0.05 0.05 95 1013.8
20260510044403 62 0 0.0 0.0 0.00 0.05 0.05 95 1013.8
20260510044003 62 0 0.0 0.0 0.00 0.05 0.05 94 1013.7
20260510043603 62 0 0.0 0.0 0.00 0.05 0.05 94 1013.7
20260510043203 62 0 0.0 0.0 0.00 0.05 0.05 94 1013.8
20260510042803 62 0 0.0 0.0 0.00 0.05 0.05 94 1013.8
20260510042403 63 0 0.0 0.0 0.00 0.05 0.05 94 1013.8
20260510042003 63 0 0.0 0.0 0.00 0.05 0.05 94 1013.8
20260510041603 63 0 0.0 0.0 0.00 0.05 0.05 94 1013.9
20260510041203 63 0 0.0 0.0 0.00 0.05 0.05 94 1013.9
20260510040803 63 0 0.0 0.0 0.00 0.05 0.05 94 1013.9
20260510040403 63 0 0.0 0.0 0.00 0.05 0.05 94 1013.9
20260510040003 63 0 0.0 0.0 0.00 0.05 0.05 94 1013.9
20260510035603 64 0 0.0 0.0 0.00 0.05 0.05 94 1013.9
20260510035203 64 0 0.0 0.0 0.00 0.05 0.05 94 1013.9
20260510034803 64 0 0.0 0.0 0.00 0.05 0.05 94 1014.0
20260510034403 64 0 0.0 0.0 0.00 0.05 0.05 94 1014.0
20260510034003 64 0 0.0 0.0 0.00 0.05 0.05 94 1014.0
20260510033624 64 0 0.0 0.0 0.00 0.05 0.05 94 1013.9
20260510033203 64 0 0.0 0.0 0.00 0.05 0.05 94 1013.9
20260510032824 64 0 0.0 0.0 0.00 0.05 0.05 94 1014.0
20260510032403 64 0 0.0 0.0 0.00 0.05 0.05 94 1014.0
20260510032003 65 0 0.0 0.0 0.00 0.05 0.05 94 1014.2
20260510031624 65 0 0.0 0.0 0.00 0.05 0.05 94 1014.2
20260510031203 65 0 0.0 0.0 0.00 0.05 0.05 94 1014.1
20260510030803 65 0 0.0 0.0 0.00 0.05 0.05 94 1014.2
20260510030403 65 0 0.0 0.0 0.00 0.05 0.05 94 1013.9
20260510030003 65 0 0.0 0.0 0.00 0.05 0.05 94 1013.8
20260510025603 65 0 0.0 0.0 0.00 0.05 0.05 94 1013.8
20260510025203 65 0 0.0 0.0 0.00 0.05 0.05 94 1013.8
20260510024803 65 0 0.0 0.0 0.00 0.05 0.05 94 1013.9
20260510024403 65 0 0.0 0.0 0.00 0.05 0.05 94 1013.8
20260510024003 65 0 0.0 0.0 0.00 0.05 0.05 94 1013.8
20260510023603 65 0 0.0 0.0 0.00 0.05 0.05 94 1013.8
20260510023203 66 0 0.0 0.0 0.00 0.05 0.05 94 1013.8
20260510022803 66 0 0.0 0.0 0.00 0.05 0.05 94 1013.8
20260510022403 66 0 0.0 0.0 0.00 0.05 0.05 94 1013.7
20260510022003 66 0 0.0 0.0 0.00 0.05 0.05 94 1013.7
20260510021603 66 0 0.0 0.0 0.00 0.05 0.05 94 1013.6
20260510021203 66 0 0.0 0.0 0.00 0.05 0.05 94 1013.5
20260510020803 66 0 0.0 0.0 0.00 0.05 0.05 94 1013.3
20260510020424 66 0 0.0 0.0 0.00 0.05 0.05 94 1013.3
20260510020024 66 0 0.0 0.0 0.00 0.05 0.05 94 1013.3
20260510015603 66 0 0.0 0.0 0.00 0.05 0.05 94 1013.2
20260510015203 66 0 0.0 0.0 0.00 0.05 0.05 93 1013.2
20260510014803 66 0 0.0 0.0 0.00 0.05 0.05 93 1013.2
20260510014403 66 0 0.0 0.0 0.00 0.05 0.05 93 1013.0
20260510014003 66 0 0.0 0.0 0.00 0.05 0.05 93 1012.9
20260510013603 66 0 0.0 0.0 0.00 0.05 0.05 93 1013.0
20260510013203 66 0 0.0 0.0 0.00 0.05 0.05 93 1012.7
20260510012803 67 0 0.0 0.0 0.00 0.05 0.05 93 1012.6
20260510012403 67 0 0.0 0.0 0.00 0.05 0.05 93 1012.6
20260510012003 67 0 0.0 0.0 0.00 0.05 0.05 93 1012.6
20260510011603 67 0 0.0 0.0 0.00 0.05 0.05 92 1012.5
20260510011224 67 0 0.0 0.0 0.00 0.05 0.05 92 1012.4
20260510010803 67 0 0.0 0.0 0.00 0.05 0.05 92 1012.4
20260510010403 67 0 0.0 0.0 0.00 0.05 0.05 92 1012.4
20260510010003 67 0 0.0 0.0 0.00 0.05 0.05 92 1012.3
20260510005603 67 0 0.0 0.0 0.00 0.05 0.05 92 1012.3
20260510005203 68 0 0.0 0.0 0.00 0.05 0.05 91 1012.2
20260510004804 68 0 0.0 0.0 0.00 0.05 0.05 92 1012.2
20260510004425 68 0 0.0 0.0 0.00 0.05 0.05 91 1012.0
20260510004004 68 0 0.0 0.0 0.00 0.05 0.05 91 1012.0
20260510003604 68 0 0.0 0.0 0.00 0.05 0.05 91 1012.1
20260510003225 68 0 0.0 0.0 0.00 0.05 0.05 90 1012.1
20260510002804 68 0 0.0 0.0 0.00 0.05 0.05 90 1012.1
20260510002404 69 0 0.0 0.0 0.00 0.05 0.05 90 1012.2
20260510002004 69 0 0.0 0.0 0.00 0.05 0.05 90 1012.1
20260510001625 69 0 0.0 0.0 0.00 0.05 0.05 90 1012.1
20260510001204 69 0 0.0 0.0 0.00 0.05 0.05 90 1012.0
20260510000804 69 0 0.0 0.0 0.00 0.05 0.05 90 1012.0
20260510000404 69 0 0.0 0.0 0.00 0.05 0.05 89 1012.0
20260510000004 69 0 0.0 0.0 0.00 0.05 0.05 89 1011.8
20260509235604 69 0 0.0 0.0 0.00 0.05 0.05 89 1011.7
20260509235204 69 0 0.0 0.0 0.00 0.05 0.05 89 1011.7
20260509234825 69 351 0.0 0.9 0.00 0.05 0.05 89 1011.5
20260509234404 70 351 0.0 0.9 0.00 0.05 0.05 89 1011.5
20260509234004 70 351 0.0 0.9 0.00 0.05 0.05 89 1011.5
20260509233604 70 351 0.0 0.9 0.00 0.05 0.05 88 1011.4
20260509233204 70 351 0.0 0.9 0.00 0.05 0.05 88 1011.5
20260509232804 70 351 0.0 0.9 0.00 0.05 0.05 87 1011.4
20260509232404 70 351 0.0 0.9 0.00 0.05 0.05 88 1011.2
20260509232004 70 351 0.0 0.9 0.00 0.05 0.05 89 1011.1
20260509231604 70 351 0.0 0.9 0.00 0.05 0.05 88 1011.2
20260509231204 70 351 0.0 0.9 0.00 0.05 0.05 88 1011.4
20260509230804 70 0 0.0 0.0 0.00 0.05 0.05 88 1011.4
20260509230404 70 0 0.0 0.0 0.00 0.05 0.05 87 1011.3
20260509230004 70 0 0.0 0.0 0.00 0.05 0.05 86 1011.2
20260509225604 71 0 0.0 0.0 0.00 0.05 0.05 86 1011.2
20260509225204 71 0 0.0 0.0 0.00 0.05 0.05 86 1011.1
20260509224804 71 0 0.0 0.0 0.00 0.05 0.05 85 1011.0
20260509224425 71 0 0.0 0.9 0.00 0.05 0.05 86 1010.9
20260509224004 71 0 0.0 0.9 0.00 0.05 0.05 86 1010.9
20260509223604 71 0 0.0 0.9 0.00 0.05 0.05 85 1010.9
20260509223204 71 0 0.0 0.0 0.00 0.05 0.05 85 1010.8
20260509222804 71 0 0.0 0.0 0.00 0.05 0.05 86 1011.0
20260509222425 71 0 0.0 0.0 0.00 0.05 0.05 85 1010.8
20260509222025 71 0 0.0 0.9 0.00 0.05 0.05 85 1010.8
20260509221604 72 0 0.0 0.9 0.00 0.05 0.05 85 1010.8
20260509221225 71 0 0.0 0.0 0.00 0.05 0.05 85 1010.7
20260509220804 71 0 0.0 0.0 0.00 0.05 0.05 85 1010.7
20260509220404 72 351 0.0 0.9 0.00 0.05 0.05 85 1010.8
20260509220004 72 351 0.0 0.9 0.00 0.05 0.05 84 1010.8
20260509215604 71 0 0.0 0.9 0.00 0.05 0.05 84 1010.8
20260509215204 72 351 0.0 0.9 0.00 0.05 0.05 85 1010.8
20260509214804 72 351 0.0 0.9 0.00 0.05 0.05 83 1010.6
20260509214404 72 351 0.0 0.9 0.00 0.05 0.05 81 1010.6
20260509214004 72 351 0.0 0.9 0.00 0.05 0.05 82 1010.6
20260509213604 72 351 0.0 0.9 0.00 0.05 0.05 82 1010.7
20260509213204 72 351 0.0 0.9 0.00 0.05 0.05 80 1010.7
20260509212804 72 351 0.0 0.9 0.00 0.05 0.05 78 1010.6
20260509212404 72 351 0.0 0.9 0.00 0.05 0.05 81 1010.6
20260509212004 72 351 0.0 0.9 0.00 0.05 0.05 80 1010.6
20260509211604 72 351 0.0 2.6 0.00 0.05 0.05 80 1010.6
20260509211204 72 351 0.0 2.6 0.00 0.05 0.05 82 1010.6
20260509210804 72 351 0.0 2.6 0.00 0.05 0.05 80 1010.6
20260509210425 72 351 0.0 0.9 0.00 0.05 0.05 82 1010.5
20260509210004 72 351 0.0 0.9 0.00 0.05 0.05 82 1010.5
20260509205604 73 351 0.0 0.9 0.00 0.05 0.05 80 1010.7
20260509205204 73 351 0.0 0.9 0.00 0.05 0.05 78 1010.6
20260509204804 72 0 0.0 0.9 0.00 0.05 0.05 80 1010.4
20260509204404 72 351 0.0 1.7 0.00 0.05 0.05 80 1010.5
20260509204004 72 351 0.0 1.7 0.00 0.05 0.05 80 1010.6
20260509203604 72 351 0.0 0.9 0.00 0.05 0.05 81 1010.6
20260509203204 72 351 0.0 0.9 0.00 0.05 0.05 81 1010.6
20260509202804 72 351 0.0 0.9 0.00 0.05 0.05 80 1010.7